[[{"header":{"parameterUnit":"m.s-1","parameterCategory":1,"la1":30.2991,"la2":30.254,"lo1":-89.0895,"lo2":-89.0444,"dy":0.0017,"dx":0.0017,"nx":28,"ny":28,"refTime":"2024-03-22T09:00:00:Z","depth":0,"parameterNumber":2,"parameterNumberName":"U-component_of_WINDS"},"data":[0,0,0,0,0,0,0,0,0,0,0,0,0,0,0,0,0,0,0,0,0,0,0,0,0,0,0,0,0,0,0,0,0,0,0,0,0,0,0,0,0,0,0,0,0,0,0,0,0,0,0,0,0,0,0,0,0,0,-2.1215,-2.1216,0,-2.1315,-2.1316,-2.1317,-2.1273,-2.127,-2.1268,-2.1266,-2.1375,-2.138,-2.1385,0,0,0,0,0,0,0,0,0,0,0,0,0,-2.0989,-2.0993,-2.1215,-2.1216,-2.1217,-2.1315,-2.1316,-2.1318,-2.1273,-2.127,-2.1267,-2.1264,-2.1373,-2.1379,-2.1385,0,0,0,0,0,0,0,0,0,0,0,0,0,-2.1088,-2.0994,-2.1214,-2.1207,-2.1207,-2.1315,-2.1316,-2.1318,-2.1274,-2.127,-2.1266,-2.1263,-2.1371,-2.1379,-2.1386,-2.151,0,0,-2.141,-2.1414,0,0,0,0,0,0,0,0,-2.1082,-2.1096,-2.1206,-2.1207,-2.1208,-2.1277,-2.1277,-2.1383,-2.1275,-2.1249,-2.1265,-2.1261,-2.1346,-2.1356,-2.1383,-2.1515,-2.1519,-2.1411,-2.1416,-2.1419,-2.1421,0,0,0,0,0,0,0,-2.1075,-2.1092,-2.1255,-2.1208,-2.1209,-2.12,-2.1209,-2.1297,-2.1317,-2.1251,-2.1248,-2.126,-2.1346,-2.1375,-2.1385,-2.1521,-2.1411,-2.1418,-2.1423,-2.1426,-2.1758,-2.1762,0,0,0,0,0,0,-2.1068,-2.1086,-2.1251,-2.1258,-2.1134,-2.1207,-2.1218,-2.1259,-2.1316,-2.1321,-2.1263,-2.1257,-2.1364,-2.1376,-2.1389,-2.1536,-2.1419,-2.1426,-2.1431,-2.1754,-2.1759,-2.1764,0,0,0,0,0,0,-2.1063,-2.1083,-2.1247,-2.1171,-2.1191,-2.1214,-2.1261,-2.1263,-2.1293,-2.1325,-2.1329,-2.1289,-2.1361,-2.1378,-2.1479,-2.154,-2.143,-2.1437,-2.1749,-2.1756,-2.1762,-2.1833,0,0,0,0,0,0,-2.1057,-2.1082,-2.1128,-2.1172,-2.1195,-2.1335,-2.1265,-2.1268,-2.1306,-2.1299,-2.1351,-2.1356,-2.136,-2.1468,-2.1487,-2.1548,-2.1443,-2.1744,-2.1752,-2.176,-2.1825,-2.1841,-2.1854,0,0,0,0,0,-2.1049,-2.1146,-2.113,-2.1151,-2.1253,-2.1339,-2.1352,-2.1352,-2.1311,-2.1358,-2.1378,-2.1355,-2.1529,-2.1479,-2.15,-2.1565,-2.174,-2.175,-2.1759,-2.1819,-2.1838,-2.1854,0,0,0,0,0,0,-2.111,-2.1151,-2.1135,-2.1248,-2.129,-2.1331,-2.139,-2.1372,-2.1428,-2.142,-2.142,-2.1432,-2.1537,-2.1561,-2.1503,-2.1686,-2.1629,-2.1643,-2.1667,-2.1685,-2.1699,-2.1692,-2.145,0,0,0,0,0,-2.1136,-2.12,-2.1234,-2.1331,-2.1352,-2.1368,-2.1405,-2.1401,-2.1445,-2.1463,-2.1491,-2.1537,-2.1601,-2.1645,-2.1706,-2.1828,-2.1839,-2.1883,-2.1897,-2.1909,-2.1922,-2.1987,-2.2007,-2.1794,-2.1794,-2.1794,0,0,-2.1192,-2.1222,-2.1263,-2.1343,-2.1375,-2.1443,-2.1383,-2.1457,-2.1508,-2.1475,-2.1572,-2.1594,-2.1645,-2.1757,-2.1808,-2.178,-2.1982,-2.1921,-2.193,-2.1936,-2.1999,-2.2019,-2.2037,-2.1801,-2.18,-2.1799,0,0,-2.1328,-2.1357,-2.1441,-2.1473,-2.1521,-2.153,-2.155,-2.1594,-2.1606,-2.1703,-2.168,-2.174,-2.1853,-2.1889,-2.1923,-2.207,-2.205,-2.2091,-2.2166,-2.223,-2.2247,-2.2262,-2.2315,-2.2334,-2.2103,-2.2103,-2.2103,0,-2.1392,-2.1491,-2.1487,-2.1562,-2.1598,-2.1569,-2.1654,-2.1686,-2.1753,-2.1779,-2.1746,-2.1885,-2.1917,-2.2037,-2.2073,-2.2101,-2.2124,-2.2085,-2.2244,-2.2259,-2.2273,-2.2324,-2.2344,-2.2107,-2.2107,-2.2106,-2.2106,0,-2.1567,-2.1636,-2.1698,-2.1761,-2.1804,-2.1884,-2.1892,-2.1937,-2.1929,-2.1942,-2.2041,-2.2078,-2.2146,-2.2174,-2.2168,-2.2293,-2.2274,-2.2243,-2.2186,-2.2298,-2.2346,-2.2365,-2.2114,-2.2112,-2.2111,-2.211,0,0,-2.1746,-2.1803,-2.1826,-2.1853,-2.1903,-2.1958,-2.2036,-2.2101,-2.2139,-2.2185,-2.2252,-2.2347,-2.2317,-2.2355,-2.2353,-2.2409,-2.2524,-2.2371,-2.2372,-2.2398,-2.2664,-2.2687,-2.2709,-2.251,-2.2514,-2.2517,-2.2659,0,-2.1886,-2.2022,-2.2019,-2.2146,-2.221,-2.2182,-2.2251,-2.229,-2.2304,-2.2362,-2.2378,-2.2445,-2.2401,-2.2424,-2.2478,-2.2498,-2.2577,-2.2488,-2.2574,-2.2577,-2.2562,-2.2734,-2.2759,-2.2892,-2.2678,-2.2681,-2.2683,0,-2.2068,-2.2117,-2.225,-2.2289,-2.2316,-2.2378,-2.2436,-2.249,-2.2534,-2.254,-2.2581,-2.257,-2.2651,-2.259,-2.2703,-2.2642,-2.2677,-2.2692,-2.2697,-2.2706,-2.2637,-2.2748,-2.2935,-2.2955,-2.2712,-2.271,-2.2708,0,-2.2185,-2.2285,-2.2377,-2.2402,-2.245,-2.2494,-2.2516,-2.2555,-2.2594,-2.2645,-2.267,-2.2731,-2.2765,-2.2813,-2.2819,-2.2774,-2.2932,-2.2872,-2.2941,-2.2941,-2.2976,-2.2974,-2.3172,-2.2998,-2.2998,-2.2997,-2.2997,0,-2.2342,-2.2424,-2.243,-2.2487,-2.2579,-2.2575,-2.2666,-2.2685,-2.272,-2.2781,-2.2761,-2.2819,-2.2822,-2.2882,-2.2887,-2.2979,-2.2995,-2.3003,-2.3004,-2.3005,-2.3004,-2.3029,-2.302,-2.3002,-2.3001,-2.3,-2.2999,0,-2.2489,-2.2496,-2.2594,-2.2631,-2.2642,-2.2708,-2.2739,-2.2794,-2.2805,-2.2882,-2.29,-2.2919,-2.2988,-2.2998,-2.308,-2.3083,-2.3194,-2.3185,-2.3179,-2.3178,-2.3246,-2.3239,-2.3467,-2.3496,-2.3303,-2.3305,-2.3306,0,-2.2588,-2.2651,-2.2693,-2.2731,-2.2755,-2.2817,-2.2855,-2.2854,-2.2895,-2.2948,-2.2996,-2.3063,-2.3116,-2.3228,-2.325,-2.3312,-2.3304,-2.3379,-2.3314,-2.3313,-2.3306,-2.3302,-2.3308,-2.3393,-2.3395,-2.3396,-2.3398,0,-2.2765,-2.2764,-2.2819,-2.2876,-2.2921,-2.2966,-2.3008,-2.3041,-2.3045,-2.3092,-2.3161,-2.3202,-2.3284,-2.335,-2.3412,-2.3436,-2.3419,-2.3418,-2.3437,-2.344,-2.3434,-2.3438,-2.3214,-2.3413,-2.3412,-2.3411,-2.341,-2.3409,-2.2891,-2.2945,-2.2982,-2.3044,-2.3074,-2.3114,-2.3166,-2.3183,-2.324,-2.3305,-2.3301,-2.3377,-2.3418,-2.3498,-2.3527,-2.3587,-2.3563,-2.3591,-2.3598,-2.3605,-2.3612,-2.3423,-2.3598,-2.3598,-2.3598,-2.3597,-2.3597,0,-2.3066,-2.3088,-2.3145,-2.3203,-2.3251,-2.3227,-2.3272,-2.3315,-2.3381,-2.342,-2.3472,-2.3551,-2.3615,-2.3641,-2.3704,-2.3747,-2.3741,-2.3764,-2.3761,-2.3767,-2.363,-2.3607,-2.3768,-2.3768,-2.3768,-2.3768,-2.3768,-2.3768,-2.3163,-2.3252,-2.3256,-2.336,-2.3382,-2.3455,-2.3483,-2.3519,-2.355,-2.3638,-2.369,-2.3706,-2.374,-2.3805,-2.3862,-2.3869,-2.3893,-2.392,-2.3923,-2.3794,-2.3777,-2.376,-2.3739,-2.3925,-2.3925,-2.4055,-2.4056,-2.4057]},{"header":{"parameterUnit":"m.s-1","parameterCategory":1,"la1":30.2991,"la2":30.254,"lo1":-89.0895,"lo2":-89.0444,"dy":0.0017,"dx":0.0017,"nx":28,"ny":28,"refTime":"2024-03-22T09:00:00:Z","depth":0,"parameterNumber":3,"parameterNumberName":"V-component_of_WINDS"},"data":[0,0,0,0,0,0,0,0,0,0,0,0,0,0,0,0,0,0,0,0,0,0,0,0,0,0,0,0,0,0,0,0,0,0,0,0,0,0,0,0,0,0,0,0,0,0,0,0,0,0,0,0,0,0,0,0,0,0,-1.8743,-1.8743,0,-1.8736,-1.8736,-1.8736,-1.875,-1.8751,-1.8751,-1.8752,-1.8742,-1.8742,-1.8741,0,0,0,0,0,0,0,0,0,0,0,0,0,-1.8763,-1.8763,-1.8743,-1.8743,-1.8743,-1.8736,-1.8736,-1.8736,-1.875,-1.8751,-1.8751,-1.8752,-1.8742,-1.8742,-1.8741,0,0,0,0,0,0,0,0,0,0,0,0,0,-1.8755,-1.8763,-1.8743,-1.8749,-1.8749,-1.8736,-1.8736,-1.8736,-1.875,-1.8751,-1.8751,-1.8752,-1.8743,-1.8742,-1.8741,-1.8721,0,0,-1.8738,-1.8737,0,0,0,0,0,0,0,0,-1.8756,-1.8755,-1.8748,-1.8748,-1.8749,-1.8745,-1.874,-1.8731,-1.875,-1.875,-1.8752,-1.8752,-1.8742,-1.8741,-1.8739,-1.872,-1.872,-1.8738,-1.8737,-1.8736,-1.8736,0,0,0,0,0,0,0,-1.8756,-1.8755,-1.874,-1.8748,-1.8748,-1.8751,-1.875,-1.8739,-1.8742,-1.875,-1.8751,-1.875,-1.8743,-1.874,-1.8739,-1.872,-1.8738,-1.8737,-1.8736,-1.8736,-1.8682,-1.8681,0,0,0,0,0,0,-1.8757,-1.8755,-1.874,-1.874,-1.8754,-1.875,-1.875,-1.8745,-1.8742,-1.8743,-1.8749,-1.8751,-1.8741,-1.874,-1.8738,-1.8713,-1.8736,-1.8736,-1.8735,-1.8683,-1.8682,-1.8681,0,0,0,0,0,0,-1.8757,-1.8755,-1.8741,-1.8748,-1.8746,-1.8749,-1.8744,-1.8745,-1.8742,-1.8742,-1.8743,-1.8746,-1.8741,-1.874,-1.8725,-1.8712,-1.8735,-1.8734,-1.8684,-1.8682,-1.8681,-1.8662,0,0,0,0,0,0,-1.8758,-1.8755,-1.8749,-1.8748,-1.8746,-1.8728,-1.8744,-1.8744,-1.874,-1.8742,-1.8739,-1.8739,-1.8742,-1.8726,-1.8724,-1.8712,-1.8733,-1.8685,-1.8683,-1.8682,-1.8664,-1.8661,-1.8658,0,0,0,0,0,-1.8758,-1.8743,-1.8748,-1.8746,-1.8738,-1.8727,-1.8726,-1.8731,-1.874,-1.8732,-1.8732,-1.8739,-1.8715,-1.8724,-1.8722,-1.8709,-1.8685,-1.8684,-1.8682,-1.8665,-1.8661,-1.8658,0,0,0,0,0,0,-1.8742,-1.8743,-1.8749,-1.8733,-1.873,-1.873,-1.8721,-1.8727,-1.872,-1.8722,-1.8727,-1.8726,-1.8709,-1.8708,-1.8719,-1.8688,-1.8701,-1.8699,-1.869,-1.8686,-1.8683,-1.8682,-1.8732,0,0,0,0,0,-1.8736,-1.8729,-1.8731,-1.8717,-1.8715,-1.8718,-1.8714,-1.8718,-1.8714,-1.8713,-1.8712,-1.8707,-1.8698,-1.8692,-1.8684,-1.8664,-1.8662,-1.8654,-1.8651,-1.8649,-1.8646,-1.8632,-1.8628,-1.8675,-1.8675,-1.8675,0,0,-1.8725,-1.8725,-1.872,-1.8713,-1.8711,-1.8702,-1.8717,-1.8707,-1.8699,-1.8711,-1.8696,-1.8695,-1.869,-1.8672,-1.8664,-1.8671,-1.8633,-1.8646,-1.8644,-1.8643,-1.863,-1.8626,-1.8622,-1.8674,-1.8674,-1.8674,0,0,-1.8699,-1.8699,-1.8687,-1.8685,-1.8682,-1.8684,-1.8681,-1.868,-1.8679,-1.8665,-1.8673,-1.8664,-1.8649,-1.8645,-1.8641,-1.8612,-1.8617,-1.861,-1.8592,-1.8579,-1.8576,-1.8572,-1.856,-1.8555,-1.8607,-1.8607,-1.8607,0,-1.8685,-1.8672,-1.8679,-1.8669,-1.8664,-1.8675,-1.8662,-1.8659,-1.8653,-1.8649,-1.8657,-1.8638,-1.8636,-1.8615,-1.8608,-1.8605,-1.86,-1.8609,-1.8576,-1.8573,-1.857,-1.8557,-1.8553,-1.8606,-1.8606,-1.8606,-1.8606,0,-1.8654,-1.8645,-1.8635,-1.863,-1.8625,-1.8613,-1.8616,-1.861,-1.8615,-1.8615,-1.8599,-1.8597,-1.8588,-1.8584,-1.8588,-1.8563,-1.8567,-1.8575,-1.8588,-1.8564,-1.8552,-1.8548,-1.8604,-1.8605,-1.8605,-1.8605,0,0,-1.8616,-1.8615,-1.8611,-1.8608,-1.8605,-1.8598,-1.8586,-1.8577,-1.8571,-1.8567,-1.8555,-1.8542,-1.8549,-1.8544,-1.8548,-1.8537,-1.8511,-1.8546,-1.8546,-1.8537,-1.8481,-1.8473,-1.8468,-1.8516,-1.8515,-1.8514,-1.848,0,-1.8589,-1.8568,-1.8574,-1.8553,-1.8543,-1.8554,-1.8542,-1.8539,-1.8539,-1.853,-1.853,-1.852,-1.8531,-1.8528,-1.8518,-1.8517,-1.8499,-1.8519,-1.8502,-1.8501,-1.8501,-1.8462,-1.8454,-1.8422,-1.8476,-1.8476,-1.8475,0,-1.8554,-1.8548,-1.8526,-1.8524,-1.852,-1.851,-1.8502,-1.8495,-1.849,-1.8491,-1.8485,-1.849,-1.8476,-1.849,-1.8469,-1.8483,-1.8476,-1.8474,-1.8473,-1.847,-1.8485,-1.8455,-1.8413,-1.8407,-1.8469,-1.8469,-1.847,0,-1.8525,-1.8513,-1.8498,-1.8495,-1.8493,-1.8485,-1.8483,-1.848,-1.8474,-1.8467,-1.8462,-1.8453,-1.8448,-1.844,-1.8442,-1.8453,-1.8419,-1.8434,-1.8417,-1.8417,-1.8408,-1.8408,-1.8361,-1.8408,-1.8408,-1.8408,-1.8408,0,-1.8493,-1.8478,-1.8485,-1.8475,-1.8458,-1.8465,-1.8448,-1.8447,-1.8444,-1.8433,-1.8441,-1.843,-1.8435,-1.8424,-1.8425,-1.8406,-1.8404,-1.8402,-1.8402,-1.84,-1.84,-1.8394,-1.8395,-1.8407,-1.8407,-1.8407,-1.8407,0,-1.8457,-1.8462,-1.8445,-1.8444,-1.8444,-1.8431,-1.843,-1.842,-1.8421,-1.8407,-1.8404,-1.8405,-1.8392,-1.8394,-1.8379,-1.838,-1.8355,-1.8359,-1.8357,-1.8357,-1.8338,-1.8339,-1.8284,-1.8276,-1.8331,-1.833,-1.833,0,-1.8435,-1.8424,-1.8422,-1.8416,-1.8414,-1.8404,-1.8398,-1.8404,-1.8397,-1.839,-1.838,-1.8369,-1.8359,-1.8338,-1.8336,-1.8325,-1.8327,-1.8308,-1.8325,-1.8322,-1.8323,-1.8322,-1.832,-1.8304,-1.8304,-1.8303,-1.8303,0,-1.8394,-1.8397,-1.8389,-1.8381,-1.8374,-1.8367,-1.8362,-1.8356,-1.8361,-1.8352,-1.834,-1.8333,-1.8318,-1.8305,-1.8294,-1.8291,-1.8296,-1.8298,-1.8293,-1.8289,-1.8287,-1.8285,-1.8345,-1.8298,-1.8299,-1.8299,-1.8299,-1.83,-1.8363,-1.8353,-1.835,-1.834,-1.8336,-1.8331,-1.8321,-1.8321,-1.8311,-1.83,-1.8304,-1.8289,-1.8283,-1.8268,-1.8264,-1.8251,-1.8257,-1.825,-1.8248,-1.8246,-1.8242,-1.8291,-1.8249,-1.8249,-1.8249,-1.8249,-1.8249,0,-1.832,-1.8319,-1.831,-1.8302,-1.8293,-1.8302,-1.8296,-1.8288,-1.8275,-1.8269,-1.826,-1.8244,-1.8231,-1.8229,-1.8216,-1.8206,-1.8208,-1.8202,-1.8201,-1.82,-1.8239,-1.8243,-1.82,-1.82,-1.82,-1.82,-1.82,-1.82,-1.8297,-1.8279,-1.8281,-1.8262,-1.826,-1.8246,-1.8242,-1.8236,-1.8231,-1.8214,-1.8203,-1.8203,-1.8197,-1.8184,-1.8172,-1.8171,-1.8165,-1.8157,-1.8157,-1.8193,-1.8198,-1.8202,-1.8206,-1.8157,-1.8156,-1.8119,-1.8119,-1.8119]}]]